Weather reports worldwide

Advertisment
Redesdale Camp, United Kingdom (3230): temperature & dewpoint: 23.07.2017 12:00:00 - 29.07.2017 12:00:00 (BST)Redesdale Camp, United Kingdom (3230): temperature -20cm & temperature -100cm: 23.07.2017 12:00:00 - 29.07.2017 12:00:00 (BST)Redesdale Camp, United Kingdom (3230): wind speed & gusts: 23.07.2017 12:00:00 - 29.07.2017 12:00:00 (BST)Redesdale Camp, United Kingdom (3230): wind direction: 23.07.2017 12:00:00 - 29.07.2017 12:00:00 (BST)Redesdale Camp, United Kingdom (3230): reduced air pressure: 23.07.2017 12:00:00 - 29.07.2017 12:00:00 (BST)Redesdale Camp, United Kingdom (3230): visibility: 23.07.2017 12:00:00 - 29.07.2017 12:00:00 (BST)Redesdale Camp, United Kingdom (3230): precipitation: 23.07.2017 12:00:00 - 29.07.2017 12:00:00 (BST)
Date & Time tt [°C] td [°C] tt -20cm [°C] tt -100cm [°C] ff [km/h] ff [kn] fx [km/h] fx [kn] dd ppp [hPa] vv [km] rr [mm]
29.07.2017 12:00:00 13,5 12,0 - - 15 8 - - SW 1002,7 35 0,2
29.07.2017 11:00:00 15,1 10,9 - - 26 14 46 25 SW 1002,2 40 0,0
29.07.2017 10:00:00 13,3 11,1 15,4 14,4 18 10 - - SW 1001,9 30 0,2
29.07.2017 09:00:00 13,5 10,7 - - 16 9 - - SW 1001,4 21 0,0
29.07.2017 08:00:00 12,6 10,4 - - 16 9 - - SW 1001,1 35 0,0
29.07.2017 07:00:00 12,5 10,7 - - 18 10 - - SW 1001,0 30 0,0
29.07.2017 06:00:00 11,7 10,5 - - 13 7 - - SW 1000,6 30 0,0
29.07.2017 05:00:00 11,6 10,9 - - 8 4 - - WSW 1000,2 30 0,0
29.07.2017 04:00:00 11,5 11,0 - - 13 7 - - SW 1000,1 30 0,0
29.07.2017 03:00:00 11,1 10,8 - - 5 3 - - SW 1000,1 23 0,0
29.07.2017 02:00:00 10,4 10,0 - - 5 3 - - WSW 1000,1 17 0,0
29.07.2017 01:00:00 10,7 10,2 - - 4 2 - - N 1000,1 12 0,0
29.07.2017 00:00:00 11,0 10,4 - - 5 3 - - NNW 999,9 26 0,0
28.07.2017 23:00:00 9,7 9,0 - - 5 3 - - N 1000,2 22 0,0
28.07.2017 22:00:00 9,7 8,6 - - 2 1 - - SSW 1000,3 10 0,0
28.07.2017 21:00:00 11,9 10,2 - - 0 0 - - N 1000,0 24 0,0
28.07.2017 20:00:00 13,6 10,3 - - 8 4 - - SW 999,8 30 0,0
28.07.2017 19:00:00 14,5 10,6 - - 13 7 - - SSW 1000,2 30 0,0
28.07.2017 18:00:00 14,8 10,7 - - 15 8 - - SW 1000,3 30 0,0
28.07.2017 17:00:00 14,9 11,6 - - 15 8 - - SW 1000,4 15 0,0
28.07.2017 16:00:00 14,8 13,1 - - 16 9 - - SW 1000,5 30 0,4
28.07.2017 15:00:00 12,9 11,3 - - 26 14 - - SW 1000,9 5 0,4
28.07.2017 14:00:00 14,7 10,8 - - 22 12 46 25 SW 1000,5 40 0,0
28.07.2017 13:00:00 16,0 11,3 - - 31 17 48 26 SW 999,9 35 0,0
28.07.2017 12:00:00 15,7 12,8 - - 24 13 - - SW 999,9 40 0,2
28.07.2017 11:00:00 12,4 11,4 - - 13 7 - - SW 1000,0 2,8 4,8
28.07.2017 10:00:00 12,3 11,4 15,4 14,4 18 10 - - SW 999,8 4,7 0,6
28.07.2017 09:00:00 11,8 11,3 - - 11 6 - - SW 999,6 6 5,2
28.07.2017 08:00:00 11,4 10,8 - - 11 6 - - SSW 999,3 1,8 1,4
28.07.2017 07:00:00 11,0 10,2 - - 18 10 - - SSW 999,2 14 0,2
28.07.2017 06:00:00 11,1 9,6 - - 18 10 - - SSW 998,8 30 0,0
28.07.2017 05:00:00 11,0 9,7 - - 9 5 - - SSW 999,0 30 0,0
28.07.2017 04:00:00 10,9 10,0 - - 9 5 - - S 999,3 30 0,2
28.07.2017 03:00:00 10,8 9,6 - - 5 3 - - S 999,3 35 0,0
28.07.2017 02:00:00 11,2 10,5 - - 11 6 - - SW 999,5 35 0,0
28.07.2017 01:00:00 9,7 9,3 - - 2 1 - - SSE 999,8 40 0,0
28.07.2017 00:00:00 9,3 8,8 - - 4 2 - - SSE 999,9 40 0,0
27.07.2017 23:00:00 8,7 8,0 - - 0 0 - - N 1000,1 15 0,0
27.07.2017 22:00:00 9,9 8,5 - - 2 1 - - S 1000,3 14 0,0
27.07.2017 21:00:00 12,0 9,4 - - 9 5 - - SSW 999,8 35 0,0
27.07.2017 20:00:00 13,6 10,3 - - 9 5 - - SSW 999,7 35 0,0
27.07.2017 19:00:00 13,8 10,2 - - 16 9 - - SW 999,4 45 0,0
27.07.2017 18:00:00 14,9 10,2 - - 21 11 - - SW 999,4 45 0,0
27.07.2017 17:00:00 14,3 11,0 - - 15 8 - - SW 999,7 35 0,0
27.07.2017 16:00:00 12,6 10,9 - - 13 7 - - SW 999,9 35 0,8
27.07.2017 15:00:00 12,7 10,8 - - 16 9 - - SW 999,9 16 0,2
27.07.2017 14:00:00 10,4 9,6 - - 13 7 46 25 SW 1000,3 13 3,4
27.07.2017 13:00:00 12,1 10,0 - - 16 9 - - SW 999,8 4,5 0,0
27.07.2017 12:00:00 11,2 9,4 - - 15 8 - - SW 1000,0 30 0,0
27.07.2017 11:00:00 12,1 9,8 - - 11 6 - - SW 1000,1 35 0,0
27.07.2017 10:00:00 11,3 10,0 15,7 14,5 5 3 - - WSW 1000,1 40 0,4
27.07.2017 09:00:00 10,5 9,6 - - 9 5 - - SW 1000,6 24 0,6
27.07.2017 08:00:00 10,8 9,6 - - 11 6 - - SW 1000,6 22 0,0
27.07.2017 07:00:00 10,4 9,5 - - 11 6 - - SSW 1000,5 19 0,0
27.07.2017 06:00:00 8,7 7,7 - - 4 2 - - SSW 1000,5 24 0,0
27.07.2017 05:00:00 9,4 8,4 - - 16 9 - - SW 1000,1 35 0,0
27.07.2017 04:00:00 9,3 8,5 - - 9 5 - - WSW 1000,0 29 0,0
27.07.2017 03:00:00 9,0 8,3 - - 4 2 - - SW 1000,1 40 0,0
27.07.2017 02:00:00 8,8 8,1 - - 2 1 - - S 1000,3 40 0,0
27.07.2017 01:00:00 9,3 8,6 - - 4 2 - - W 1000,2 35 0,0
27.07.2017 00:00:00 9,7 8,7 - - 2 1 - - SW 999,4 24 0,0
26.07.2017 23:00:00 10,7 9,5 - - 16 9 - - SW 999,5 11 0,6
26.07.2017 22:00:00 12,0 10,5 - - 13 7 - - SSW 998,8 29 0,0
26.07.2017 21:00:00 12,6 10,9 - - 4 2 - - NW 998,4 29 0,8
26.07.2017 20:00:00 14,4 11,9 - - 5 3 - - WSW 997,7 28 1,0
26.07.2017 19:00:00 15,4 12,9 - - 9 5 - - WSW 997,4 28 0,2
26.07.2017 18:00:00 16,7 14,2 - - 15 8 - - SW 996,9 21 0,0
26.07.2017 17:00:00 17,1 13,3 - - 9 5 - - WSW 997,2 27 0,0
26.07.2017 16:00:00 17,3 15,3 - - 13 7 - - WSW 997,1 35 0,2
26.07.2017 15:00:00 16,4 15,9 - - 16 9 - - SW 996,8 9 0,4
26.07.2017 14:00:00 16,5 16,2 - - 21 11 - - SSW 996,8 2,7 1,6
26.07.2017 13:00:00 15,6 15,3 - - 16 9 - - S 997,4 2,0 1,6
26.07.2017 12:00:00 14,4 14,2 - - 21 11 - - SSE 998,3 2,6 3,0
26.07.2017 11:00:00 13,5 13,2 - - 21 11 - - SE 999,5 2,3 2,2
26.07.2017 10:00:00 13,2 12,8 15,7 14,5 21 11 - - SE 1000,9 4,3 0,4
26.07.2017 09:00:00 12,7 12,3 - - 18 10 - - ESE 1002,3 3,5 0,8
26.07.2017 08:00:00 12,8 12,3 - - 15 8 - - SE 1003,5 4,4 0,0
26.07.2017 07:00:00 12,7 12,3 - - 15 8 - - SE 1004,5 3,5 0,0
26.07.2017 06:00:00 12,1 11,7 - - 5 3 - - SE 1005,7 2,7 0,0
26.07.2017 05:00:00 11,7 11,2 - - 5 3 - - SE 1006,8 4,2 0,0
26.07.2017 04:00:00 11,0 10,3 - - 2 1 - - ENE 1008,0 5 0,0
26.07.2017 03:00:00 10,6 9,7 - - 5 3 - - SE 1009,1 7 0,0
26.07.2017 02:00:00 11,5 10,3 - - 4 2 - - E 1009,9 12 0,0
26.07.2017 01:00:00 11,4 10,3 - - 2 1 - - ENE 1011,0 7 0,0
26.07.2017 00:00:00 11,5 9,9 - - 4 2 - - ESE 1011,9 13 0,0
25.07.2017 23:00:00 11,4 9,9 - - 4 2 - - E 1012,4 10 0,0
25.07.2017 22:00:00 12,3 10,1 - - 9 5 - - ESE 1012,8 26 0,0
25.07.2017 21:00:00 13,0 10,8 - - 11 6 - - ESE 1012,8 28 0,0
25.07.2017 20:00:00 13,7 11,4 - - 9 5 - - ESE 1013,2 27 0,0
25.07.2017 19:00:00 14,1 11,6 - - 11 6 - - ESE 1013,7 21 0,0
25.07.2017 18:00:00 14,7 12,1 - - 5 3 - - E 1013,9 19 0,0
25.07.2017 17:00:00 15,1 11,6 - - 5 3 - - SSE 1014,5 28 0,0
25.07.2017 16:00:00 15,4 11,6 - - 9 5 - - SE 1015,0 30 0,0
25.07.2017 15:00:00 15,5 12,2 - - 9 5 - - ESE 1015,2 30 0,0
25.07.2017 14:00:00 14,7 10,9 - - 5 3 - - S 1015,9 30 0,0
25.07.2017 13:00:00 14,5 10,8 - - 8 4 - - SE 1016,1 30 0,0
25.07.2017 12:00:00 14,3 10,4 - - 5 3 - - SSE 1016,3 30 0,0
25.07.2017 11:00:00 13,5 9,9 - - 2 1 - - E 1016,7 30 0,0
25.07.2017 10:00:00 12,9 9,9 15,7 14,5 4 2 - - E 1017,4 30 0,0
25.07.2017 09:00:00 12,6 10,0 - - 8 4 - - NNE 1017,7 28 0,0
25.07.2017 08:00:00 12,0 9,8 - - 8 4 - - N 1017,8 25 0,0
25.07.2017 07:00:00 11,7 9,6 - - 9 5 - - N 1017,9 30 0,0
25.07.2017 06:00:00 11,5 9,3 - - 5 3 - - NNW 1018,0 35 0,0
25.07.2017 05:00:00 11,3 9,8 - - 8 4 - - NNW 1018,2 23 0,0
25.07.2017 04:00:00 11,2 9,9 - - 4 2 - - WNW 1018,4 17 0,0
25.07.2017 03:00:00 11,3 9,7 - - 5 3 - - N 1018,8 19 0,0
25.07.2017 02:00:00 11,4 9,8 - - 9 5 - - N 1019,1 20 0,0
25.07.2017 01:00:00 11,8 10,2 - - 5 3 - - NNW 1019,2 22 0,0
25.07.2017 00:00:00 11,6 10,1 - - 2 1 - - NNW 1019,3 3,1 0,0
24.07.2017 23:00:00 11,8 10,3 - - 0 0 - - N 1019,6 17 0,0
24.07.2017 22:00:00 12,1 10,1 - - 2 1 - - WNW 1019,4 17 0,0
24.07.2017 21:00:00 12,5 9,9 - - 13 7 - - NNE 1019,1 22 0,0
24.07.2017 20:00:00 13,6 10,5 - - 13 7 - - N 1018,7 20 0,0
24.07.2017 19:00:00 14,0 10,4 - - 16 9 - - N 1018,3 29 0,0
24.07.2017 18:00:00 15,0 10,7 - - 21 11 - - NNE 1018,0 30 0,0
24.07.2017 17:00:00 15,7 11,3 - - 24 13 - - NNE 1017,9 30 0,0
24.07.2017 16:00:00 16,0 10,6 - - 21 11 - - N 1017,8 30 0,0
24.07.2017 15:00:00 14,5 10,2 - - 18 10 - - N 1018,0 35 0,0
24.07.2017 14:00:00 14,0 10,6 - - 18 10 - - N 1017,8 28 0,0
24.07.2017 13:00:00 13,5 10,1 - - 28 15 - - N 1017,6 28 0,0
24.07.2017 12:00:00 12,9 10,0 - - 26 14 - - N 1017,5 28 0,0
24.07.2017 11:00:00 12,7 9,7 - - 24 13 - - N 1017,5 27 0,0
24.07.2017 10:00:00 12,6 9,9 15,7 14,5 28 15 - - N 1016,9 29 0,0
24.07.2017 09:00:00 12,7 10,5 - - 24 13 - - N 1016,3 27 0,0
24.07.2017 08:00:00 11,7 10,5 - - 29 16 46 25 N 1016,2 17 0,0
24.07.2017 07:00:00 11,7 10,8 - - 22 12 - - N 1015,7 17 0,0
24.07.2017 06:00:00 12,1 11,3 - - 18 10 - - N 1015,3 12 0,0
24.07.2017 05:00:00 12,2 11,4 - - 21 11 - - NNW 1015,0 5 0,0
24.07.2017 04:00:00 12,1 11,5 - - 28 15 46 25 N 1015,0 22 0,0
24.07.2017 03:00:00 12,2 11,7 - - 29 16 - - N 1015,1 6 0,0
24.07.2017 02:00:00 12,6 12,0 - - 16 9 - - N 1015,0 8 0,0
24.07.2017 01:00:00 13,0 12,2 - - 28 15 48 26 N 1014,7 10 0,0
24.07.2017 00:00:00 13,2 12,0 - - 31 17 - - N 1014,5 20 0,0
23.07.2017 23:00:00 13,3 12,1 - - 24 13 - - N 1014,4 22 0,0
23.07.2017 22:00:00 13,4 11,8 - - 21 11 - - N 1014,3 26 0,0
23.07.2017 21:00:00 13,8 12,7 - - 24 13 - - NNE 1013,4 24 0,0
23.07.2017 20:00:00 13,4 12,7 - - 29 16 - - N 1012,6 5 0,2
23.07.2017 19:00:00 13,9 12,9 - - 26 14 - - N 1012,0 16 0,2
23.07.2017 18:00:00 14,4 13,5 - - 24 13 - - N 1011,4 12 0,8
23.07.2017 17:00:00 14,8 13,8 - - 16 9 - - N 1011,1 10 1,4
23.07.2017 16:00:00 15,0 14,0 - - 18 10 - - N 1011,1 7 0,2
23.07.2017 15:00:00 14,8 13,9 - - 8 4 - - WNW 1011,1 7 0,0
23.07.2017 14:00:00 14,2 12,8 - - 5 3 - - WNW 1011,4 14 0,6
23.07.2017 13:00:00 14,4 12,5 - - 8 4 - - NW 1011,4 2,7 0,4
23.07.2017 12:00:00 15,2 12,6 - - 8 4 - - NNW 1011,6 17 0,0

tt = temperature
td = dewpoint
tt -20cm = temperature -20cm
tt -100cm = temperature -100cm
ff = wind speed
fx = gusts
dd = wind direction
ppp = reduced air pressure
vv = visibility
rr = precipitation

Next stations